GEFSNE_500_meanwind_090.txt.gz
Wind_Speed
69 69 68 68 68 68 67 66 66 65 64 64 66 66 67 67 68 68 68 69 69 69 69 69 69 69 69 68 67 67 66 65 65 65 65 66 67 72
71 70 68 68 69 68 66 66 67 66 65 64 66 67 68 68 69 69 68 68 68 67 68 68 67 67 67 66 65 65 63 62 61 61 62 63 63 67
71 70 68 68 67 67 66 66 66 67 67 65 66 66 67 67 67 67 68 67 66 66 66 65 65 65 64 63 63 62 61 59 58 57 58 59 60 63
67 67 66 67 67 67 66 66 66 67 67 65 64 64 64 65 65 66 66 65 64 64 63 63 63 63 62 61 61 60 59 57 55 54 56 58 60 62
66 65 65 66 66 65 65 66 66 67 66 65 63 63 63 64 65 65 64 63 63 62 61 61 62 61 60 60 59 59 58 55 53 52 54 58 61 63
64 63 63 63 63 64 65 65 65 65 65 65 64 63 63 63 64 64 62 61 61 60 60 60 60 60 59 59 58 57 56 54 52 51 53 56 59 62
63 62 61 61 62 63 63 63 64 64 64 64 64 62 61 62 62 62 61 60 59 59 60 59 60 59 58 58 56 55 53 51 50 50 52 55 59 62
61 60 59 59 60 61 61 61 62 62 62 62 61 60 60 61 61 60 60 59 58 58 60 58 59 58 56 55 54 53 51 49 49 48 50 55 60 63
59 59 58 58 59 59 59 60 59 60 60 60 60 59 59 59 59 59 59 58 57 57 58 56 56 55 53 52 51 49 47 46 46 46 48 55 60 62
56 56 55 56 56 58 58 58 57 57 58 59 58 58 58 57 57 57 57 56 55 55 56 55 54 53 50 49 48 45 43 43 43 45 47 53 59 62
54 54 54 54 55 56 55 55 55 55 56 56 56 55 55 54 55 55 55 54 54 53 54 55 52 50 47 46 44 42 40 39 39 41 46 53 59 63
52 52 52 52 52 53 53 52 53 53 53 53 53 52 52 52 53 53 53 53 52 51 51 52 50 48 44 41 41 39 37 36 36 38 43 51 58 64
50 50 50 49 50 50 50 50 50 50 50 50 50 49 49 49 49 50 50 50 50 48 48 48 46 45 43 39 37 36 34 33 34 36 42 51 60 65
47 47 47 46 47 47 48 48 48 48 47 47 47 47 47 47 46 46 46 46 46 46 45 45 44 42 40 37 34 33 32 31 32 35 41 51 61 65
44 44 43 43 44 44 45 45 45 45 45 44 44 44 44 44 43 43 43 43 43 43 43 42 41 40 38 35 32 30 29 29 30 33 40 51 60 65
42 41 41 41 41 41 42 42 42 42 42 42 42 41 41 40 40 41 40 41 41 40 41 40 39 37 35 32 30 28 27 27 29 32 38 48 59 66
40 39 39 39 39 39 39 39 39 39 39 39 38 38 37 37 38 38 39 39 39 38 37 37 36 34 32 29 27 25 25 25 27 31 37 47 58 65
38 37 37 36 37 36 36 36 37 36 36 35 35 35 35 36 36 37 37 37 36 35 35 34 32 30 28 26 24 23 22 22 25 30 35 44 55 63
36 35 34 34 34 34 34 34 34 33 33 33 33 34 34 34 35 35 35 35 34 33 33 31 29 27 25 22 20 20 20 21 24 28 34 42 53 62
33 33 32 33 33 33 32 31 31 30 31 32 33 33 33 34 34 33 33 33 32 31 30 29 27 25 22 19 18 19 19 20 23 28 34 41 51 61
31 31 30 31 31 30 30 29 29 29 30 32 32 32 33 33 32 31 31 31 31 29 28 26 25 22 19 17 17 17 18 19 23 28 34 41 49 58
29 28 29 29 29 29 28 28 28 29 30 31 31 31 31 31 30 30 30 30 29 28 26 25 23 21 18 16 15 15 17 20 23 28 35 41 48 56
27 26 27 27 27 27 27 27 27 28 29 30 30 30 30 29 29 29 28 28 28 27 25 24 21 18 15 14 13 14 16 20 25 30 35 41 48 56

GEFSNE_500_meanwind_096.txt.gz
Wind_Speed
70 71 71 71 71 71 71 72 72 71 69 67 67 67 69 70 70 69 68 68 68 68 67 67 67 66 66 67 67 68 68 69 69 70 71 72 74 75
70 70 69 69 70 70 70 71 71 72 69 66 67 68 69 69 70 69 69 69 68 68 68 68 67 66 67 67 68 68 69 69 70 71 71 72 74 75
69 69 68 68 69 69 69 69 69 68 66 64 64 65 66 67 68 68 68 67 67 68 68 67 67 67 67 67 68 68 69 70 70 71 71 72 73 75
68 69 68 68 69 69 69 69 68 67 66 63 63 64 65 66 67 66 66 67 67 67 67 67 66 66 66 67 68 68 69 69 69 70 70 71 72 74
67 68 67 68 68 67 68 67 67 66 65 64 63 63 64 65 65 66 66 66 66 66 66 66 66 66 66 67 67 68 69 68 68 69 70 70 71 72
66 66 66 66 66 66 66 65 64 64 64 63 63 62 63 63 64 64 64 64 64 64 64 65 65 65 66 67 67 68 68 68 68 68 69 69 70 71
64 64 64 65 64 63 63 62 62 62 62 62 61 61 61 61 62 63 63 63 63 63 63 63 64 64 65 66 67 67 67 68 68 67 68 68 69 70
61 61 61 60 60 61 60 60 60 60 60 59 59 59 59 60 61 62 62 62 61 61 63 62 64 64 64 65 66 66 66 67 66 66 67 68 69 69
58 57 57 57 58 58 58 59 59 58 58 58 58 57 58 59 60 60 60 61 60 60 62 61 62 63 63 63 64 65 65 65 65 65 66 66 67 68
55 55 54 54 54 54 55 55 55 55 55 56 56 56 57 58 58 59 59 59 58 59 60 60 59 60 60 60 61 62 62 63 63 64 64 65 65 65
53 52 52 51 52 53 53 52 52 52 54 55 55 55 54 55 56 57 57 57 56 55 57 58 57 58 57 56 57 58 59 60 61 62 63 63 63 63
49 49 49 49 50 50 50 50 50 50 51 52 52 53 52 53 54 54 54 55 54 53 53 55 55 55 53 52 53 54 56 57 59 59 59 59 59 58
47 46 47 48 48 48 48 48 48 49 49 49 49 49 50 50 51 51 52 52 52 50 51 52 51 51 51 49 49 51 53 55 56 56 55 55 54 54
44 44 45 46 46 46 46 46 47 47 47 46 46 46 47 47 47 48 48 48 48 47 47 49 49 49 49 48 47 49 51 52 53 52 51 50 50 49
43 43 43 44 44 44 44 44 45 45 45 44 43 43 44 44 44 44 45 45 45 45 46 47 47 47 48 48 47 48 49 49 49 48 48 47 46 44
41 41 41 41 42 42 42 42 42 42 42 41 40 40 41 42 42 42 43 43 43 43 45 46 47 47 47 47 47 47 47 47 46 46 45 43 42 41
39 39 39 39 39 39 39 39 40 40 39 38 38 38 38 39 39 40 41 41 41 42 43 45 46 46 46 47 46 46 45 44 43 43 42 40 39 38
37 36 36 36 37 37 37 37 38 37 37 37 36 36 37 37 38 39 39 39 40 40 41 43 45 46 45 45 46 45 44 43 41 41 39 37 36 35
34 34 35 35 36 36 35 35 35 34 34 34 34 35 36 36 36 37 38 38 38 39 40 41 43 43 43 43 42 45 43 41 40 38 36 33 31 31
33 33 34 34 34 33 33 33 33 33 33 33 33 34 34 34 35 36 36 37 37 38 38 39 41 41 42 41 40 40 41 38 35 34 32 30 27 28
32 33 33 33 32 32 31 32 32 32 32 32 32 33 33 33 34 34 35 35 36 36 36 37 38 39 39 38 37 35 35 33 31 30 29 27 26 27
31 31 31 31 31 30 30 30 30 30 30 31 31 31 32 33 33 33 33 34 34 35 35 36 36 37 36 36 34 31 30 29 27 26 25 24 25 27
29 29 29 28 28 27 27 27 28 28 29 29 29 30 31 32 32 32 32 32 33 33 33 34 34 34 34 33 31 29 27 25 23 22 22 22 24 27

GEFSNE_500_meanwind_102.txt.gz
Wind_Speed
81 82 82 82 83 83 83 83 82 80 77 74 74 74 74 74 74 74 73 73 72 72 71 71 71 71 71 70 69 69 69 69 68 68 67 67 67 67
83 83 83 83 83 83 83 83 83 82 79 74 75 74 74 74 74 73 73 73 73 73 72 72 71 71 71 71 71 71 71 70 69 69 69 69 68 68
83 83 83 83 83 83 83 82 82 81 80 74 75 74 74 74 74 74 74 74 73 73 73 72 71 70 70 70 70 70 70 70 70 69 69 69 70 70
80 81 81 81 82 81 80 79 79 78 77 74 73 74 73 73 73 73 73 73 73 72 71 70 70 70 69 69 69 69 69 69 69 69 70 70 70 71
76 77 76 76 76 75 75 74 74 74 73 72 70 71 71 71 72 72 72 71 71 70 70 69 69 69 68 68 67 67 66 67 67 68 69 69 69 69
71 71 70 70 70 70 70 69 69 69 69 69 67 67 68 68 69 68 68 68 67 67 67 67 67 66 65 66 66 65 65 65 66 67 67 67 68 68
65 65 65 64 64 64 64 64 65 65 65 64 63 63 64 64 64 64 65 64 64 64 64 64 64 63 64 64 64 64 64 65 66 66 66 67 67 68
60 59 59 59 59 60 60 61 62 61 61 61 60 60 59 60 61 61 61 61 60 60 62 61 61 61 62 63 64 65 65 65 65 66 66 67 68 69
55 54 53 54 55 56 56 57 58 58 59 59 58 57 57 57 59 59 58 58 58 59 60 59 59 60 61 62 62 63 64 65 66 66 67 67 68 68
50 50 50 50 51 52 52 52 53 54 54 55 54 53 54 56 56 56 56 56 55 56 56 57 58 58 59 60 61 62 62 63 64 65 65 65 66 67
46 46 47 47 48 49 49 49 49 49 50 51 52 52 52 52 53 53 54 54 54 54 55 55 56 57 58 58 59 60 61 62 63 63 64 65 65 66
42 43 44 45 45 46 46 46 46 46 47 48 49 49 49 50 51 51 52 52 52 52 53 54 55 56 56 56 58 59 59 60 61 62 63 64 65 66
41 41 41 42 43 43 44 44 44 44 44 45 45 46 47 48 49 50 50 51 51 50 51 53 53 54 55 54 54 55 57 58 59 60 60 61 62 64
40 40 40 40 41 41 42 42 42 41 42 42 42 43 44 46 47 47 48 49 49 49 50 51 51 51 52 51 51 52 53 54 55 56 57 58 59 60
40 39 38 38 38 38 39 39 39 39 39 40 40 40 42 43 44 45 45 46 47 47 48 48 49 49 50 49 48 49 50 50 52 53 54 56 56 57
38 37 36 36 36 35 35 35 36 36 36 36 37 38 39 40 41 42 42 43 44 44 45 46 47 47 47 47 47 46 47 48 49 51 53 54 54 54
35 34 34 34 34 33 33 33 33 34 34 35 36 36 36 37 37 38 39 40 40 40 41 43 44 45 45 45 45 45 46 48 49 51 53 53 52 52
33 33 32 32 32 32 32 33 33 34 34 35 35 35 36 36 37 37 38 38 39 39 40 41 42 43 43 43 43 45 46 47 49 50 52 52 51 52
32 32 32 31 31 32 32 32 33 33 34 34 35 36 36 37 37 37 38 37 38 38 39 40 42 42 42 42 42 45 46 48 49 50 50 51 50 50
32 31 31 31 31 32 32 32 32 33 33 34 35 35 35 35 35 36 36 36 37 38 38 40 41 42 42 42 42 43 46 47 48 48 49 50 50 49
31 30 30 29 29 30 30 30 31 32 32 33 33 33 33 33 33 34 35 36 36 37 38 38 40 41 42 42 41 41 43 46 47 48 48 49 47 46
29 28 28 28 29 29 29 29 29 29 29 30 30 30 31 31 32 33 34 35 36 36 37 38 39 40 40 40 40 40 41 43 45 46 45 44 42 40
28 27 27 28 28 28 28 27 27 27 27 28 28 29 30 30 31 31 32 33 34 34 35 36 37 38 39 39 39 39 40 41 42 42 41 40 38 36

GEFSNE_500_meanwind_108.txt.gz
Wind_Speed
84 85 87 87 88 88 89 90 91 92 90 89 91 91 90 88 87 88 87 86 86 85 84 83 82 80 79 78 77 76 74 74 73 72 71 70 69 68
84 84 84 84 85 85 86 87 88 90 89 86 88 89 90 88 87 88 87 86 85 85 84 83 82 81 80 79 78 77 76 75 74 73 73 72 71 70
80 80 80 80 80 80 80 81 82 83 83 80 81 83 85 85 84 84 84 84 83 82 82 83 82 81 80 80 79 78 77 76 75 74 74 73 72 72
78 77 76 75 75 75 74 74 74 75 76 74 73 75 76 77 77 77 78 79 79 79 79 79 80 80 80 79 79 78 78 77 75 75 74 74 73 73
74 73 71 70 69 68 67 67 67 67 67 66 64 66 68 69 71 71 72 72 73 74 74 75 76 76 77 77 76 76 76 75 75 74 74 74 73 73
68 66 65 63 62 61 61 61 61 60 60 60 59 59 61 62 64 64 65 66 67 69 70 71 71 72 73 74 74 73 73 73 73 72 73 72 72 72
62 60 58 57 56 56 56 55 54 55 55 55 54 53 54 56 57 59 60 61 62 64 65 67 67 68 69 69 70 70 70 70 70 70 70 70 70 70
56 55 54 53 52 51 51 51 50 50 50 51 50 50 49 51 53 54 56 57 58 59 61 62 63 64 64 65 66 67 68 69 69 69 69 68 68 68
53 51 50 49 48 48 47 47 47 48 48 48 47 46 47 48 50 51 52 53 54 55 56 57 58 59 60 62 63 65 66 66 66 66 66 67 67 67
49 48 47 46 46 46 45 44 43 43 44 45 45 45 45 46 47 48 48 50 51 52 52 52 53 54 56 58 60 61 62 62 63 64 64 65 65 65
46 46 46 45 44 44 44 42 41 41 42 43 44 44 43 44 44 45 46 47 48 48 49 49 50 52 53 55 56 57 58 58 59 60 61 61 62 63
44 44 43 42 41 41 41 40 40 39 40 41 41 41 42 42 43 43 44 45 45 46 46 48 49 50 51 52 53 54 55 55 56 57 58 59 60 61
41 40 40 39 39 38 38 38 38 38 38 38 38 39 39 40 41 42 42 43 43 44 44 45 46 48 48 48 50 51 52 53 54 55 57 58 59 60
39 38 38 37 36 36 36 37 37 37 37 37 37 37 38 38 39 39 40 41 41 42 42 43 44 45 46 47 48 49 50 51 53 54 55 56 57 58
38 37 36 35 35 35 35 36 36 36 36 36 35 35 36 36 36 37 38 39 39 40 40 41 42 43 44 46 47 48 49 50 51 52 54 55 56 57
36 35 35 34 34 33 33 33 33 33 33 33 33 33 33 34 34 35 36 37 38 38 38 39 39 41 42 43 44 45 47 48 49 50 52 53 54 55
34 34 34 33 32 31 31 31 31 31 31 31 31 31 31 31 32 33 34 35 36 37 38 38 39 39 40 41 41 42 43 45 47 49 50 50 51 51
34 34 33 32 31 30 30 30 30 30 30 30 30 30 30 31 32 33 34 35 36 37 38 39 40 40 40 39 39 40 41 42 44 46 47 48 49 50
33 32 32 31 30 29 29 29 29 29 30 30 30 30 31 32 33 33 35 36 37 37 38 39 40 40 40 39 39 40 41 42 43 44 45 46 46 47
32 31 30 30 29 29 28 28 29 29 29 30 30 31 31 32 32 33 33 35 36 36 37 38 39 39 39 39 39 39 41 41 42 42 43 45 45 46
30 30 29 28 28 28 28 28 28 28 29 29 30 30 31 31 31 31 32 32 33 34 35 36 37 38 38 39 38 38 40 41 42 43 44 45 45 45
30 30 29 29 28 28 28 28 28 28 29 29 29 29 30 30 30 30 30 31 31 32 32 33 35 36 37 38 38 38 40 41 42 43 43 44 45 45
30 30 29 29 29 29 28 28 28 28 28 28 28 28 29 29 29 30 30 30 30 30 31 32 33 35 36 37 38 38 39 40 40 41 41 42 43 43

GEFSNE_500_meanwind_114.txt.gz
Wind_Speed
76 77 77 77 76 77 77 79 81 81 78 77 78 79 80 81 81 82 82 82 82 82 83 85 86 88 89 89 90 90 89 88 87 85 83 81 79 77
76 76 76 75 76 76 77 78 80 81 80 76 76 76 76 76 76 76 76 76 76 76 76 78 80 82 84 86 87 88 88 88 88 87 86 84 82 80
76 76 76 75 75 76 76 77 77 77 78 74 72 70 70 69 69 69 69 70 69 70 71 72 74 76 78 80 83 85 86 87 87 87 87 86 84 82
76 75 74 74 75 75 75 74 73 72 72 70 65 63 63 63 63 63 63 64 64 65 66 66 68 70 71 73 76 78 81 83 85 86 86 86 84 84
74 73 73 73 73 72 72 71 69 67 66 65 61 58 57 57 58 58 58 58 58 59 59 59 60 62 63 65 68 71 73 76 79 81 83 84 84 84
73 72 72 72 71 69 67 65 63 62 60 59 57 55 54 53 54 53 53 54 53 53 53 54 54 55 56 58 60 63 65 69 71 75 77 79 80 81
72 71 70 68 66 64 61 59 57 56 55 55 54 52 50 50 50 50 50 49 49 49 49 49 50 50 51 52 53 55 57 60 64 67 70 72 75 76
70 68 65 62 59 56 55 53 52 52 51 51 50 48 46 46 46 46 46 46 44 43 45 44 45 45 47 49 49 51 52 54 56 59 63 66 69 71
66 63 59 56 53 52 50 49 48 47 47 47 46 44 43 42 42 42 42 41 40 40 42 41 41 42 43 44 46 47 48 50 52 55 57 60 63 66
60 57 54 50 49 48 46 44 43 43 43 43 43 42 41 41 41 40 40 40 39 38 39 39 39 40 41 42 43 44 46 47 49 51 53 56 58 60
53 51 49 46 45 44 43 41 40 40 40 41 41 39 39 38 39 39 39 40 38 37 38 38 37 38 39 40 41 42 43 45 46 47 49 52 53 55
48 46 44 43 41 40 40 39 39 38 39 38 37 37 37 36 37 37 38 39 38 37 36 37 37 37 37 37 39 40 41 42 43 45 46 48 51 52
44 42 40 39 38 37 37 38 37 37 37 36 35 35 35 35 35 36 37 37 37 36 35 36 36 37 37 36 37 38 39 40 41 42 44 46 48 50
42 39 37 37 36 36 36 36 36 35 34 34 33 33 33 33 33 34 34 35 35 35 35 35 35 35 35 35 35 36 38 39 40 41 42 43 45 47
40 38 37 37 36 36 35 35 34 34 34 33 32 32 32 32 32 33 33 33 33 33 33 34 34 34 34 34 34 35 36 37 38 39 41 42 43 45
39 37 36 35 35 35 34 34 34 33 33 32 32 31 31 31 31 32 32 32 32 32 32 32 32 33 33 33 33 33 34 35 36 38 39 40 41 43
36 35 34 34 33 33 33 32 32 32 32 32 31 31 31 31 30 31 31 31 31 30 30 30 31 32 32 32 32 32 32 33 34 36 37 39 40 41
36 34 33 33 33 33 32 32 32 32 32 32 32 31 31 30 30 30 30 30 29 29 29 30 30 31 31 31 31 32 32 33 34 35 36 37 38 40
35 34 33 32 32 31 30 30 30 31 31 31 31 31 31 30 30 30 30 30 29 29 29 30 30 31 31 31 31 33 33 34 34 35 35 36 36 38
34 33 32 32 32 31 31 31 31 30 31 31 31 31 30 30 29 29 29 29 29 29 29 30 30 30 31 31 31 32 34 34 35 35 35 35 35 36
33 32 32 32 31 31 31 31 31 31 31 30 30 30 30 29 29 29 29 29 29 29 29 29 29 29 29 29 29 30 32 33 34 35 36 36 36 36
32 31 31 31 31 31 31 30 30 30 30 29 29 29 28 28 28 28 28 28 28 28 27 27 28 28 28 28 27 28 29 31 32 34 35 37 37 37
31 31 31 31 31 30 29 29 28 29 29 29 28 27 27 27 27 27 27 27 27 27 27 28 28 28 28 28 28 28 29 30 30 31 33 35 37 38

GEFSNE_500_meanwind_120.txt.gz
Wind_Speed
69 71 72 73 75 76 77 79 80 80 77 75 75 75 75 75 76 76 76 76 77 78 78 79 79 79 80 81 83 84 86 87 88 88 89 90 90 89
72 73 74 75 76 77 78 79 80 81 79 76 76 75 75 75 74 75 75 75 76 76 76 76 76 75 76 76 77 79 80 81 82 83 85 86 87 87
74 75 76 77 77 77 78 78 78 79 79 75 74 74 73 73 73 73 73 73 73 73 73 73 73 72 72 72 72 72 73 75 76 77 79 80 82 84
76 76 77 77 77 77 77 78 78 78 78 75 72 71 71 71 71 70 70 70 69 69 69 68 68 68 68 68 68 68 69 70 72 73 74 76 77 79
76 77 77 77 77 78 78 78 78 77 76 75 72 71 70 69 69 68 67 66 64 63 63 62 62 63 63 63 64 65 66 66 67 68 69 71 73 75
77 77 78 79 79 79 78 77 76 74 73 72 70 68 66 65 64 63 61 60 58 58 57 57 57 57 57 58 59 59 60 61 62 63 64 65 67 69
77 78 78 79 78 77 75 73 71 69 67 66 64 62 59 58 57 56 55 53 52 51 51 51 51 51 51 51 52 53 54 55 55 56 57 59 60 63
78 78 77 75 73 71 69 67 65 63 61 59 56 54 52 51 49 49 48 47 45 45 46 46 46 45 45 46 47 48 49 49 50 51 51 52 54 56
77 76 73 69 67 64 62 60 58 56 55 53 51 48 46 44 43 42 42 42 41 40 41 40 42 42 42 43 44 45 46 46 46 47 48 49 50 51
74 71 67 63 61 59 56 53 51 50 49 48 46 43 41 40 40 39 39 38 37 36 37 36 37 38 39 40 41 42 42 43 43 43 44 46 47 48
68 65 61 58 55 53 52 49 47 45 45 44 41 39 38 37 37 37 36 35 33 33 35 34 34 35 36 37 38 39 40 41 41 41 42 42 44 45
62 59 56 53 50 49 48 46 44 42 41 39 38 36 36 36 36 35 34 33 32 31 32 33 33 34 33 34 36 37 38 39 40 40 40 40 41 42
57 53 50 49 47 46 45 44 42 40 37 36 35 35 35 34 34 34 34 33 31 30 30 32 32 32 33 33 34 35 36 37 38 38 38 39 40 40
54 50 48 46 45 43 42 41 40 38 36 34 33 33 33 33 33 33 33 32 31 30 30 31 31 31 31 31 32 33 34 35 36 36 37 38 38 39
51 48 46 44 42 41 40 39 37 36 35 33 33 32 32 32 32 32 32 32 31 31 31 30 31 31 30 30 31 32 33 34 35 35 35 36 37 38
49 46 43 42 41 39 37 36 35 35 34 32 31 31 31 32 32 32 32 32 31 31 31 31 30 30 30 29 29 30 31 32 33 34 34 35 35 36
45 42 40 39 37 35 34 34 34 33 32 31 30 30 30 30 31 31 32 31 31 31 30 30 30 30 29 29 28 29 30 30 31 32 33 33 34 35
43 40 37 36 34 33 32 32 32 31 31 30 29 29 29 28 29 29 29 30 30 30 30 29 29 29 28 28 28 29 29 29 30 31 31 32 33 34
40 37 35 33 32 32 31 30 30 30 30 29 28 29 28 28 28 28 28 28 28 29 29 29 29 29 28 28 28 29 29 29 29 29 30 30 31 33
37 35 33 32 31 31 30 30 29 29 29 28 28 28 27 27 27 27 27 27 27 27 28 29 29 29 29 28 28 29 29 29 29 29 29 30 31 31
35 34 32 31 31 30 29 29 28 28 28 28 27 27 27 27 27 27 27 26 26 26 27 27 28 28 28 27 27 28 29 29 29 29 30 30 30 31
33 32 31 30 30 29 29 28 28 27 27 27 26 27 27 27 26 26 25 25 24 25 26 26 27 27 27 26 27 28 28 28 28 29 29 30 30 31
32 31 30 30 30 29 28 28 27 27 27 26 26 26 26 25 25 25 25 24 24 24 25 25 26 26 26 26 26 27 27 27 27 26 27 28 28 29

GEFSNE_500_meanwind_126.txt.gz
Wind_Speed
65 67 68 69 70 71 73 74 75 74 72 73 75 76 77 78 78 78 78 79 79 79 79 79 79 79 79 79 79 79 79 80 81 81 82 82 82 82
68 69 70 71 72 73 75 76 78 79 77 76 78 79 79 79 79 79 78 78 78 78 78 78 78 78 78 78 78 78 78 78 78 79 79 80 80 80
70 71 72 73 74 75 77 78 79 80 81 78 79 79 79 79 79 79 79 78 77 76 76 76 76 76 76 76 76 77 77 76 76 75 75 76 77 77
72 73 74 76 77 78 79 80 81 82 83 82 80 80 80 80 79 78 77 76 75 74 73 73 72 72 73 73 73 73 73 73 73 73 73 73 73 74
74 75 76 78 78 79 80 81 82 83 84 83 80 79 77 76 75 74 73 71 70 69 68 67 67 67 67 68 68 68 68 69 69 69 69 70 70 71
76 77 79 80 80 81 82 82 83 83 82 80 78 75 72 70 69 68 66 65 63 62 61 60 60 60 60 61 62 62 63 63 64 65 66 66 67 67
78 79 80 80 81 82 82 82 81 80 78 76 73 69 66 64 62 61 60 57 55 54 54 53 53 53 53 54 55 55 56 57 58 59 60 61 62 62
79 80 80 81 81 81 80 79 78 76 73 70 67 64 60 57 56 54 53 51 48 46 47 45 46 45 46 46 47 47 48 48 49 50 52 53 55 56
80 80 80 80 80 79 76 74 72 69 67 65 61 57 54 52 50 48 46 44 42 41 41 39 39 39 39 40 40 40 41 42 43 43 44 45 47 49
80 80 79 78 76 74 72 69 66 62 60 58 56 52 50 48 46 44 42 40 37 36 37 35 35 35 35 36 35 35 36 36 37 38 39 39 41 42
78 78 77 74 71 69 67 64 60 57 55 53 51 48 45 43 42 40 38 36 33 32 33 33 32 33 32 32 33 32 32 32 32 33 34 35 36 38
76 74 71 69 66 64 63 60 56 53 51 48 46 43 41 39 38 38 36 34 32 29 30 31 30 30 29 30 31 31 30 30 30 30 31 32 34 35
73 68 65 64 62 61 59 56 53 50 48 44 41 38 37 37 36 36 35 33 30 28 28 29 28 28 27 28 29 29 29 29 28 28 29 30 31 32
68 65 62 61 60 57 54 51 49 47 44 40 37 35 34 34 33 33 32 31 30 29 28 28 27 27 27 27 27 28 28 28 28 27 28 28 30 31
65 62 61 59 56 52 49 47 45 42 39 35 33 32 31 31 31 30 29 29 29 29 28 28 27 27 27 26 27 27 27 27 27 27 27 28 28 29
61 59 57 54 51 48 45 43 40 37 34 32 30 29 29 29 29 28 28 27 27 27 27 27 27 26 26 26 26 26 27 27 27 27 27 27 28 28
58 55 53 49 46 44 41 39 36 34 31 30 29 28 27 27 27 27 27 26 26 26 26 26 26 25 25 25 25 26 26 27 27 27 26 26 27 27
56 53 49 46 43 40 37 34 33 31 30 29 28 27 27 26 26 26 26 26 25 25 25 25 24 24 24 24 25 25 25 26 26 26 25 25 25 26
53 50 46 43 40 37 34 32 30 30 29 29 28 27 27 26 25 25 25 25 24 24 24 24 24 23 23 23 24 24 24 24 24 25 25 25 25 25
50 46 43 40 37 35 32 30 30 29 29 28 27 27 26 26 25 24 24 23 23 23 23 23 23 23 23 23 23 23 23 23 23 24 24 24 24 24
46 42 39 37 35 33 31 30 29 29 28 28 27 27 26 25 24 24 24 23 23 22 22 22 22 22 22 22 22 22 23 22 22 23 23 23 23 23
42 39 37 36 34 32 30 29 29 28 28 27 26 26 25 24 24 23 23 23 22 22 22 22 21 21 21 21 21 22 23 22 22 22 22 22 22 22
39 36 35 34 32 31 29 29 28 28 27 27 26 25 25 24 23 22 22 22 22 22 22 22 21 21 21 21 21 21 22 22 22 22 21 21 22 22